DW4332 Weather Reports


time (UTC)temp
C
wind
direction
speed
KPH
gust
KPH
rain 1hr
cm
rain 24hr
cm
rain mn
cm
humidity
%
barometer
mb
20260905091545 21 355 0.0 0.0 0.00 0.00 0.00 100 1008.3
20260905090040 21 355 0.0 0.0 0.00 0.00 0.00 100 1008.2
20260905084536 21 355 0.0 0.0 0.00 0.00 0.00 100 1008.3
20260905083031 21 355 0.0 0.0 0.00 0.00 0.00 100 1008.2
20260905081526 21 355 0.0 0.0 0.00 0.00 0.00 100 1008.3
20260905080023 21 355 0.0 0.0 0.00 0.00 0.00 100 1008.4
20260905074519 21 355 0.0 0.0 0.00 0.00 0.00 100 1008.4
20260905073014 22 355 0.0 0.0 0.00 0.00 0.00 5 1008.3
20260905071510 22 355 0.0 0.0 0.00 0.00 0.00 11 1008.4
20260905070005 22 355 0.0 0.0 0.00 0.00 0.00 13 1008.4
20260905064501 22 355 0.0 0.0 0.00 0.00 0.00 20 1008.5
20260905063057 22 355 0.0 0.0 0.00 0.00 0.00 25 1008.5
20260905061606 22 355 0.0 0.0 0.00 0.00 0.00 3 1008.6
20260905060055 21 325 0.0 0.0 0.00 0.00 0.00 100 1008.5
20260905054544 21 325 0.0 0.0 0.00 0.00 0.00 100 1008.6
20260905053039 21 325 0.0 0.0 0.00 0.00 0.00 100 1008.9
20260905051535 21 325 0.0 0.0 0.00 0.00 0.00 100 1009.0
20260905050031 22 325 0.0 0.0 0.00 0.00 0.00 100 1009.0
20260905044526 22 325 0.0 0.0 0.00 0.00 0.00 100 1009.1
20260905043022 22 325 0.0 0.0 0.00 0.00 0.00 100 1009.2
20260905041518 22 325 0.0 0.0 0.00 0.00 0.00 100 1009.5
20260905040013 22 325 0.0 0.0 0.00 0.00 0.00 100 1009.4
20260905034515 23 325 0.0 0.0 0.00 0.00 0.00 100 1009.4
20260905033005 23 325 0.0 0.0 0.00 0.00 0.00 100 1009.2
20260905031600 23 325 0.0 0.0 0.00 0.00 0.00 100 1009.2
20260905030105 23 325 0.0 0.0 0.00 0.00 0.00 100 1009.3
20260905024552 23 325 0.0 0.0 0.00 0.00 0.00 100 1009.2
20260905023047 23 325 0.0 0.0 0.00 0.00 0.00 100 1009.2
20260905021543 23 325 0.0 0.0 0.00 0.00 0.00 100 1009.2
20260905020047 23 325 0.0 0.0 0.00 0.00 0.00 100 1009.2
20260905014534 23 325 0.0 0.0 0.00 0.00 0.00 100 1009.2
20260905013032 23 325 0.0 0.0 0.00 0.00 0.00 100 1009.2
20260905011536 24 325 0.0 0.0 0.00 0.00 0.00 100 1009.3
20260905010021 24 325 0.0 0.0 0.00 0.00 0.00 100 1009.1
20260905004517 25 325 0.0 0.0 0.00 0.00 0.00 100 1009.0
20260905003012 25 325 0.0 0.0 0.00 0.00 0.00 1 1008.7
20260905001508 25 325 0.0 0.0 0.00 0.00 0.00 11 1008.7
20260905000004 26 325 0.0 0.0 0.00 0.00 0.00 18 1008.7
20260904234600 26 325 0.0 0.0 0.00 0.00 0.00 27 1008.9
20260904233055 26 325 0.0 0.0 0.00 0.00 0.00 34 1008.9
20260904231550 26 325 0.0 0.0 0.00 0.00 0.00 39 1008.8
20260904230047 26 325 0.0 0.0 0.00 0.00 0.00 42 1008.8
20260904224546 27 325 0.0 0.0 0.00 0.00 0.00 44 1009.0
20260904223038 27 232 0.0 0.0 0.00 0.00 0.00 51 1008.9
20260904221533 27 227 0.0 0.0 0.00 0.00 0.00 54 1008.9
20260904220029 28 298 0.0 0.0 0.00 0.00 0.00 58 1008.9
20260904214524 28 67 0.0 0.0 0.00 0.00 0.00 60 1008.9
20260904213020 28 149 0.0 0.0 0.00 0.00 0.00 60 1009.0
20260904211515 28 259 0.0 0.0 0.00 0.00 0.00 60 1008.7
20260904210013 28 343 0.0 0.0 0.00 0.00 0.00 60 1008.8
20260904204508 29 338 0.0 0.0 0.00 0.00 0.00 61 1008.8
20260904203006 30 338 0.0 0.0 0.00 0.00 0.00 61 1009.0
20260904201559 30 116 1.6 0.0 0.00 0.00 0.00 61 1009.1
20260904200054 30 68 0.0 0.0 0.00 0.00 0.00 61 1009.2
20260904194607 30 153 1.6 0.0 0.00 0.00 0.00 61 1009.3
20260904193046 31 303 1.6 0.0 0.00 0.00 0.00 60 1009.6
20260904191541 30 23 0.0 0.0 0.00 0.00 0.00 60 1009.7
20260904190036 30 93 1.6 0.0 0.00 0.00 0.00 60 1009.7
20260904184537 30 195 1.6 0.0 0.00 0.00 0.00 60 1009.9
20260904183028 30 333 0.0 0.0 0.00 0.00 0.00 60 1009.9
20260904181541 30 182 0.0 0.0 0.00 0.00 0.00 60 1009.9
20260904180019 30 355 0.0 0.0 0.00 0.00 0.00 60 1010.0
20260904174515 30 146 0.0 0.0 0.00 0.00 0.00 60 1010.0
20260904173018 30 355 1.6 0.0 0.00 0.00 0.00 60 1009.9
20260904171506 30 15 0.0 0.0 0.00 0.00 0.00 59 1009.9
20260904170002 31 111 1.6 0.0 0.00 0.00 0.00 59 1010.0
20260904164558 31 326 0.0 0.0 0.00 0.00 0.00 60 1010.0
20260904163053 30 332 0.0 0.0 0.00 0.00 0.00 60 1010.0
20260904161549 30 336 1.6 0.0 0.00 0.00 0.00 58 1010.1
20260904160045 30 65 0.0 0.0 0.00 0.00 0.00 59 1010.1
20260904154546 30 343 1.6 0.0 0.00 0.00 0.00 59 1010.2
20260904153036 30 343 1.6 0.0 0.00 0.00 0.00 60 1010.3
20260904151535 30 5 1.6 0.0 0.00 0.00 0.00 59 1010.4
20260904150027 30 326 1.6 0.0 0.00 0.00 0.00 58 1010.4
20260904144523 29 90 1.6 0.0 0.00 0.00 0.00 57 1010.4
20260904143029 29 355 1.6 0.0 0.00 0.00 0.00 54 1010.5
20260904141514 28 339 1.6 0.0 0.00 0.00 0.00 46 1010.3
20260904140027 28 312 1.6 0.0 0.00 0.00 0.00 41 1010.2
20260904134505 28 329 1.6 0.0 0.00 0.00 0.00 32 1010.2
20260904133001 27 360 1.6 0.0 0.00 0.00 0.00 21 1010.0
20260904131559 27 326 0.0 0.0 0.00 0.00 0.00 100 1010.1
20260904130053 26 210 0.0 0.0 0.00 0.00 0.00 100 1010.1
20260904124548 26 335 0.0 0.0 0.00 0.00 0.00 100 1010.1
20260904123044 25 166 0.0 0.0 0.00 0.00 0.00 100 1010.1
20260904121540 25 162 0.0 0.0 0.00 0.00 0.00 100 1010.0
20260904120045 25 305 0.0 0.0 0.00 0.00 0.00 100 1009.9
20260904114531 24 155 0.0 0.0 0.00 0.00 0.00 100 1010.0
20260904113027 23 80 0.0 0.0 0.00 0.00 0.00 100 1009.9
20260904111522 23 80 0.0 0.0 0.00 0.00 0.00 100 1009.6
20260904110018 23 65 0.0 0.0 0.00 0.00 0.00 100 1009.4
20260904104514 23 161 0.0 0.0 0.00 0.00 0.00 100 1009.3
20260904103019 23 162 0.0 0.0 0.00 0.00 0.00 100 1009.2
20260904101505 23 161 0.0 0.0 0.00 0.00 0.00 100 1009.1
20260904100101 23 162 0.0 0.0 0.00 0.00 0.00 100 1009.3
20260904094558 23 162 0.0 0.0 0.00 0.00 0.00 100 1009.1
20260904093059 23 159 0.0 0.0 0.00 0.00 0.00 100 1009.1